Temp
49 52 55 60 59 64 63 62 60 58 58 58 56 55 54 56 55 56 55 54 53 52 50 50 49 49 48 47 47 46 44 44 46 43 44 44 47 47 47 50 50 48 48
50 54 56 57 59 62 62 61 60 58 58 57 57 55 55 55 55 55 54 54 53 52 52 48 48 48 47 46 46 44 43 43 45 41 40 36 39 43 46 45 46 44 47
50 53 53 55 62 61 60 60 60 58 56 55 56 55 55 54 53 53 53 53 52 52 50 49 47 46 46 45 44 44 41 40 43 43 39 33 29 36 40 41 41 41 42
52 53 55 61 61 61 61 60 59 58 57 55 53 50 50 49 51 51 52 52 51 50 51 48 46 45 45 44 43 46 42 41 38 41 44 40 38 32 29 36 39 41 43
53 53 57 63 63 62 60 59 59 58 56 54 52 51 49 50 51 50 48 48 49 49 49 47 45 44 44 43 42 41 40 40 39 38 37 36 36 36 31 29 33 37 39
52 56 63 63 62 61 59 59 58 56 55 54 52 50 48 48 48 47 47 47 48 48 47 47 44 44 43 42 41 40 39 39 39 39 38 34 31 31 30 28 30 31 35
54 59 61 60 60 58 58 58 57 55 54 53 52 51 49 48 47 47 47 46 46 46 45 44 43 43 43 43 41 40 40 40 38 37 35 36 36 35 33 30 28 29 33
57 60 60 60 59 59 57 56 56 55 54 53 51 51 51 50 49 48 47 47 46 46 45 44 44 43 43 42 40 40 40 40 38 35 36 35 34 33 30 27 27 25 28
58 59 60 60 59 58 56 55 55 55 54 53 51 50 50 49 48 47 47 47 46 48 45 44 43 43 42 41 39 38 38 38 37 36 36 35 35 34 33 33 30 28 23
61 59 59 58 59 59 57 55 55 55 54 53 51 51 50 50 49 48 46 46 46 45 44 43 43 43 42 41 39 37 37 37 35 35 34 34 35 34 35 34 32 31 28
60 58 59 58 59 59 57 55 54 54 52 52 51 50 49 49 49 48 47 46 45 45 44 44 44 43 42 41 37 36 36 35 34 34 33 33 35 32 33 34 33 32 31
60 60 60 59 57 57 56 55 53 52 52 52 52 49 49 49 48 47 47 46 45 45 45 45 44 44 43 41 37 35 35 33 32 33 33 34 36 33 33 32 31 32 32
59 59 57 57 57 56 55 55 53 52 53 53 51 49 48 48 47 46 46 47 45 45 45 45 43 43 42 38 36 35 33 33 33 33 33 33 33 32 32 32 31 32 34
59 56 55 56 56 55 54 54 53 53 53 53 51 48 47 48 47 47 46 46 46 45 44 44 44 42 42 38 36 35 33 33 34 34 34 33 32 32 31 31 31 32 31
58 57 56 55 54 54 54 54 53 53 53 51 50 48 48 48 47 46 46 45 45 45 45 44 43 42 41 38 34 33 32 33 33 33 34 32 34 35 33 31 30 30 29
58 57 56 55 54 53 53 54 53 52 53 50 49 50 49 49 46 46 45 44 44 43 43 42 42 40 43 37 37 35 33 34 33 31 32 32 33 31 32 32 31 30 27
57 56 55 53 53 53 54 52 53 53 51 50 50 50 49 47 46 46 45 44 42 42 41 41 42 40 38 37 36 35 33 34 33 31 30 30 32 31 29 30 31 31 32
56 55 53 53 53 54 54 54 54 52 50 49 49 49 48 46 46 45 44 42 43 42 41 41 41 40 41 37 35 34 33 33 33 32 30 29 29 29 29 28 27 28 29
56 54 54 54 53 53 54 53 51 51 49 48 48 48 47 46 45 43 42 42 42 41 41 42 41 38 37 37 35 33 31 32 31 32 30 30 28 30 32 27 26 27 28
56 55 55 54 53 53 53 51 49 48 47 48 48 48 47 46 44 42 41 42 42 41 41 40 40 39 36 37 35 33 31 29 29 30 31 31 29 30 31 26 25 24 26
55 56 55 52 52 54 52 48 47 46 48 49 49 47 47 45 44 43 42 40 39 39 37 37 37 37 36 35 35 34 31 29 28 28 28 29 30 31 31 30 26 26 28
54 55 52 51 53 54 51 47 46 49 49 48 48 46 46 46 45 41 40 39 37 35 34 34 33 34 34 35 34 34 33 33 27 27 28 27 30 30 30 29 30 30 29
54 55 52 51 51 51 50 46 47 49 49 47 45 45 46 46 44 40 38 36 36 34 33 32 31 31 33 33 34 33 33 33 29 30 30 29 29 29 27 30 29 29 28
54 54 52 50 48 50 50 48 47 43 42 43 46 46 44 44 44 43 40 37 35 33 32 31 30 30 31 31 32 30 31 32 30 29 28 27 27 27 26 26 26 27 28
54 54 51 49 46 48 48 49 50 51 49 47 46 45 45 44 43 42 38 36 36 32 30 30 31 28 28 30 33 31 30 30 29 28 26 24 23 23 23 24 24 25 27
54 52 46 41 40 47 45 50 50 50 49 47 45 42 43 43 43 41 39 36 34 34 34 34 32 32 35 35 35 33 34 33 31 26 23 21 20 20 20 20 21 23 23
MSLP
1026.16 1026.07 1025.83 1025.38 1025.19 1024.78 1024.91 1025.11 1025.27 1025.57 1025.50 1025.17 1024.99 1025.07 1024.76 1024.48 1024.20 1024.23 1024.25 1024.21 1024.26 1024.15 1024.04 1023.72 1023.49 1023.12 1022.90 1022.53 1022.09 1021.59 1021.24 1020.86 1020.30 1019.82 1019.34 1018.75 1018.31 1017.87 1017.45 1017.16 1017.04 1017.04 1016.67
1025.73 1025.59 1025.56 1025.27 1024.94 1024.92 1025.05 1025.21 1025.49 1025.75 1025.94 1025.95 1025.54 1025.48 1025.03 1024.65 1024.46 1024.44 1024.35 1024.34 1024.17 1024.03 1023.80 1023.73 1023.47 1023.27 1023.09 1022.64 1022.10 1021.76 1021.38 1020.87 1020.37 1020.09 1019.54 1018.93 1018.62 1018.07 1017.64 1017.62 1017.50 1017.25 1016.97
1025.19 1025.39 1025.28 1024.86 1024.66 1024.99 1025.28 1025.48 1025.73 1026.00 1026.28 1026.34 1025.98 1025.88 1025.37 1025.03 1024.88 1024.78 1024.71 1024.66 1024.29 1024.02 1023.89 1023.71 1023.70 1023.59 1023.18 1022.77 1022.32 1021.89 1021.56 1021.14 1020.59 1020.07 1019.76 1019.25 1019.02 1018.70 1018.14 1017.76 1017.45 1017.27 1017.12
1025.14 1025.08 1024.63 1024.25 1024.60 1024.98 1025.45 1025.69 1025.87 1026.20 1026.39 1026.51 1026.45 1026.33 1026.10 1025.80 1025.51 1025.27 1025.18 1024.78 1024.53 1024.27 1024.04 1024.10 1024.04 1023.79 1023.36 1022.88 1022.44 1021.96 1021.77 1021.34 1020.74 1020.15 1019.74 1019.56 1019.29 1019.05 1018.41 1017.94 1017.86 1017.47 1017.18
1024.67 1024.48 1024.10 1023.91 1024.37 1024.83 1025.49 1025.84 1025.96 1026.36 1026.67 1026.76 1026.74 1026.70 1026.62 1026.36 1026.02 1025.68 1025.49 1025.20 1024.78 1024.52 1024.31 1024.29 1024.20 1023.91 1023.39 1023.01 1022.74 1022.30 1021.93 1021.47 1020.90 1020.34 1019.96 1019.65 1019.35 1019.18 1019.03 1018.39 1018.10 1017.81 1017.34
1024.38 1024.04 1023.69 1024.02 1024.61 1025.18 1025.68 1025.69 1026.01 1026.41 1026.74 1026.85 1026.89 1026.85 1026.80 1026.57 1026.33 1025.98 1025.75 1025.50 1025.04 1024.73 1024.49 1024.35 1024.24 1023.86 1023.45 1023.05 1022.61 1022.22 1021.82 1021.29 1020.72 1020.25 1020.09 1019.95 1019.73 1019.45 1019.30 1019.08 1018.63 1018.28 1017.64
1023.81 1023.45 1023.56 1024.20 1024.85 1025.43 1025.73 1025.96 1026.13 1026.49 1026.78 1026.94 1027.03 1026.97 1026.87 1026.67 1026.49 1026.25 1026.00 1025.60 1025.18 1024.89 1024.66 1024.41 1024.13 1023.70 1023.30 1022.83 1022.46 1022.17 1021.65 1021.03 1020.77 1020.67 1020.34 1019.95 1019.70 1019.42 1019.45 1019.30 1018.83 1018.38 1017.81
1023.28 1023.00 1023.69 1024.27 1024.90 1025.44 1026.09 1026.55 1026.49 1026.61 1026.88 1027.08 1027.17 1027.07 1027.01 1026.84 1026.69 1026.46 1026.03 1025.66 1025.34 1025.02 1024.53 1024.29 1023.83 1023.47 1023.05 1022.67 1022.34 1021.98 1021.41 1020.89 1020.62 1020.29 1020.02 1019.73 1019.31 1019.04 1019.01 1019.03 1018.98 1018.47 1017.92
1022.71 1023.00 1023.92 1024.48 1025.03 1025.57 1026.22 1026.77 1026.80 1026.83 1027.09 1027.23 1027.25 1027.13 1027.07 1026.87 1026.66 1026.37 1025.98 1025.71 1025.36 1024.90 1024.54 1024.12 1023.71 1023.30 1022.83 1022.42 1022.04 1021.65 1021.30 1020.92 1020.68 1020.31 1019.79 1019.36 1018.86 1018.51 1018.39 1018.38 1018.54 1018.57 1017.92
1022.12 1023.13 1024.01 1024.72 1025.25 1025.71 1026.26 1026.78 1027.02 1027.08 1027.28 1027.33 1027.28 1027.19 1027.12 1026.89 1026.55 1026.28 1026.04 1025.77 1025.42 1024.95 1024.50 1024.02 1023.58 1023.01 1022.46 1022.07 1021.74 1021.66 1021.36 1020.98 1020.58 1019.96 1019.35 1018.75 1018.27 1017.86 1017.58 1017.57 1017.71 1017.86 1017.76
1022.15 1023.31 1024.05 1024.91 1025.41 1025.90 1026.42 1026.88 1027.20 1027.33 1027.45 1027.36 1027.28 1027.21 1027.20 1026.89 1026.59 1026.33 1026.14 1025.80 1025.38 1024.94 1024.45 1023.90 1023.40 1022.84 1022.40 1021.90 1021.66 1021.66 1021.27 1020.74 1020.18 1019.59 1018.84 1018.16 1017.65 1017.30 1017.13 1016.89 1016.84 1016.88 1016.91
1022.31 1023.24 1024.07 1024.90 1025.78 1026.29 1026.74 1027.02 1027.41 1027.60 1027.57 1027.42 1027.35 1027.38 1027.34 1027.07 1026.72 1026.49 1026.22 1025.78 1025.43 1024.91 1024.40 1023.82 1023.29 1022.81 1022.36 1021.83 1021.87 1021.66 1021.16 1020.32 1019.56 1018.86 1018.24 1017.61 1017.10 1016.86 1016.62 1016.42 1016.33 1016.15 1016.05
1022.52 1023.46 1024.58 1025.33 1025.84 1026.56 1027.05 1027.26 1027.62 1027.76 1027.69 1027.58 1027.52 1027.58 1027.51 1027.18 1026.82 1026.61 1026.24 1025.75 1025.41 1024.88 1024.36 1023.79 1023.31 1022.76 1022.27 1022.11 1022.01 1021.65 1020.84 1020.08 1019.27 1018.40 1017.66 1017.09 1016.66 1016.32 1016.09 1015.84 1015.67 1015.46 1015.23
1022.72 1024.12 1025.19 1025.61 1026.29 1026.87 1027.26 1027.53 1027.77 1027.89 1027.86 1027.80 1027.75 1027.77 1027.60 1027.25 1027.03 1026.76 1026.29 1025.94 1025.46 1024.94 1024.45 1023.90 1023.34 1022.79 1022.32 1022.27 1022.07 1021.38 1020.46 1019.62 1018.73 1017.94 1017.38 1016.81 1016.30 1015.82 1015.46 1015.23 1015.16 1014.90 1014.79
1022.84 1024.02 1024.84 1025.82 1026.64 1027.13 1027.44 1027.74 1027.92 1028.09 1028.07 1028.04 1027.95 1027.89 1027.73 1027.44 1027.25 1026.90 1026.49 1026.12 1025.64 1025.14 1024.52 1023.88 1023.27 1022.74 1022.28 1022.54 1022.00 1021.07 1020.13 1019.10 1018.32 1017.75 1017.07 1016.53 1015.99 1015.35 1015.07 1014.81 1014.62 1014.48 1014.35
1023.10 1024.23 1025.33 1026.23 1026.95 1027.38 1027.63 1027.92 1028.09 1028.23 1028.27 1028.25 1028.15 1028.08 1027.94 1027.67 1027.51 1027.14 1026.78 1026.41 1025.83 1025.19 1024.55 1023.94 1023.30 1022.76 1022.43 1022.66 1021.94 1021.07 1019.81 1018.71 1018.03 1017.32 1016.61 1016.11 1015.55 1015.33 1014.94 1014.52 1014.29 1014.22 1013.96
1023.53 1024.70 1025.87 1026.75 1027.26 1027.64 1027.89 1028.08 1028.21 1028.38 1028.53 1028.54 1028.44 1028.37 1028.29 1028.05 1027.85 1027.52 1027.11 1026.60 1026.00 1025.32 1024.75 1024.13 1023.40 1022.86 1022.62 1022.55 1021.82 1020.89 1019.70 1018.62 1017.76 1017.08 1016.38 1015.75 1015.28 1014.92 1014.55 1014.06 1013.61 1013.32 1013.14
1024.07 1025.37 1026.43 1027.11 1027.56 1027.89 1028.14 1028.30 1028.44 1028.66 1028.84 1028.89 1028.84 1028.78 1028.70 1028.47 1028.25 1027.90 1027.51 1027.04 1026.35 1025.71 1025.11 1024.43 1023.75 1023.32 1022.81 1022.45 1021.76 1020.83 1019.77 1018.66 1017.78 1017.02 1016.37 1015.51 1014.61 1013.77 1013.55 1013.02 1012.83 1012.49 1012.22
1024.71 1025.87 1026.77 1027.39 1027.87 1028.19 1028.44 1028.61 1028.90 1029.07 1029.20 1029.28 1029.24 1029.24 1029.13 1028.87 1028.67 1028.33 1027.99 1027.53 1026.86 1026.24 1025.71 1025.10 1024.37 1023.86 1023.28 1022.62 1022.19 1021.31 1020.04 1018.83 1018.09 1017.16 1016.45 1015.39 1014.60 1013.81 1012.70 1012.61 1012.24 1011.84 1011.39
1025.34 1026.23 1027.02 1027.64 1028.17 1028.49 1028.76 1029.08 1029.31 1029.47 1029.66 1029.64 1029.61 1029.68 1029.56 1029.33 1029.20 1028.93 1028.67 1028.27 1027.66 1027.06 1026.51 1025.83 1025.19 1024.66 1023.95 1023.17 1022.64 1021.77 1020.41 1019.25 1018.20 1017.11 1016.04 1015.37 1014.54 1013.47 1012.57 1012.31 1011.96 1011.46 1011.17
1025.69 1026.51 1027.19 1027.87 1028.35 1028.62 1028.95 1029.40 1029.69 1029.93 1030.03 1030.04 1029.99 1030.05 1029.94 1029.70 1029.71 1029.52 1029.40 1029.05 1028.53 1027.93 1027.32 1026.64 1025.91 1025.31 1024.51 1023.59 1022.67 1021.74 1020.57 1019.47 1018.20 1017.06 1015.93 1015.52 1014.60 1013.56 1012.63 1012.07 1011.72 1011.30 1010.92
1026.04 1026.84 1027.57 1028.26 1028.63 1028.85 1029.25 1029.74 1030.01 1030.21 1030.26 1030.34 1030.29 1030.45 1030.20 1030.15 1030.20 1030.07 1029.92 1029.63 1029.13 1028.58 1028.03 1027.29 1026.43 1025.78 1024.95 1024.11 1022.97 1021.90 1020.77 1019.74 1018.58 1017.40 1016.73 1016.07 1014.97 1014.10 1013.14 1012.23 1011.57 1011.00 1010.63
1026.17 1027.02 1027.87 1028.55 1029.05 1029.43 1029.72 1030.11 1030.36 1030.41 1030.50 1030.58 1030.49 1030.56 1030.44 1030.34 1030.44 1030.44 1030.30 1030.06 1029.71 1029.36 1028.96 1028.41 1027.58 1026.60 1025.60 1024.59 1023.39 1022.28 1020.97 1019.87 1018.95 1018.07 1017.45 1016.70 1015.65 1014.73 1013.83 1012.86 1011.99 1011.35 1010.81
1026.29 1027.28 1028.12 1028.82 1029.41 1029.81 1030.15 1030.39 1030.53 1030.44 1030.48 1030.60 1030.49 1030.50 1030.52 1030.34 1030.26 1030.46 1030.47 1030.33 1030.15 1030.06 1029.75 1029.21 1028.45 1027.61 1026.46 1025.28 1024.06 1022.90 1021.51 1020.47 1019.46 1018.51 1017.79 1017.09 1016.19 1015.26 1014.52 1013.60 1012.79 1012.02 1011.37
1026.59 1027.51 1028.37 1029.17 1029.87 1030.26 1030.53 1030.59 1030.54 1030.32 1030.37 1030.70 1030.86 1030.70 1030.66 1030.62 1030.54 1030.55 1030.72 1030.62 1030.36 1030.56 1030.56 1030.11 1029.33 1028.28 1027.03 1025.97 1025.13 1023.94 1022.36 1021.35 1020.42 1019.35 1018.58 1017.68 1016.72 1015.79 1015.06 1014.32 1013.68 1012.87 1012.05
1026.74 1027.87 1029.21 1030.03 1030.32 1030.45 1030.69 1030.67 1030.78 1030.80 1030.69 1030.89 1031.09 1031.28 1031.05 1030.97 1030.85 1030.80 1030.77 1030.70 1030.49 1030.52 1030.46 1030.27 1029.60 1028.69 1027.75 1026.72 1025.64 1024.39 1023.11 1022.14 1021.06 1019.98 1019.31 1018.62 1017.86 1017.09 1016.41 1015.62 1014.80 1013.95 1013.04
Wind_Speed
6 5 5 4 2 3 7 8 8 9 8 8 6 6 6 5 3 4 6 5 5 5 6 5 7 7 8 8 9 7 8 7 7 7 7 5 8 8 6 7 8 7 4
8 7 5 5 5 7 7 8 9 8 7 7 6 6 6 4 4 5 5 8 6 6 7 6 6 7 8 11 8 9 8 6 7 8 8 7 6 6 6 4 5 7 5
10 7 5 9 8 8 7 8 8 8 8 8 7 7 7 6 6 6 6 8 7 7 7 7 7 9 8 8 9 8 9 8 9 8 7 8 4 9 5 7 5 6 5
9 7 8 6 7 7 6 7 8 9 8 8 7 8 7 7 6 6 8 7 8 7 8 9 10 9 7 9 8 9 9 9 10 8 7 8 7 7 6 3 7 6 7
8 8 9 8 9 8 7 5 7 8 8 7 6 6 7 7 6 6 8 8 7 7 8 9 9 8 7 8 9 9 9 8 9 7 6 6 5 7 6 8 7 6 5
8 9 8 9 8 8 6 4 6 8 6 6 7 6 6 7 7 7 7 8 6 6 7 9 7 8 8 8 8 8 9 9 9 7 6 5 5 6 5 5 8 8 7
10 9 9 8 7 6 8 8 8 8 6 7 7 7 7 7 8 8 7 9 7 7 9 8 8 7 8 8 8 8 10 10 7 8 6 5 6 5 5 4 7 7 6
10 8 10 7 7 5 10 8 8 8 8 7 7 6 7 5 6 7 7 6 7 8 8 9 8 8 9 8 7 8 8 8 7 7 9 7 6 4 2 3 3 8 7
12 12 9 5 5 8 8 6 7 8 8 7 6 6 6 7 6 7 7 7 7 9 10 8 8 9 8 7 7 7 8 10 9 10 9 9 8 5 4 4 3 5 7
12 11 6 6 7 5 7 7 7 8 8 7 5 6 7 8 7 7 8 9 9 9 9 9 9 9 8 7 7 7 11 12 10 10 11 11 8 6 5 5 5 5 7
14 9 6 7 7 7 7 7 7 8 7 6 6 6 7 8 8 8 9 9 9 10 10 10 10 10 10 10 5 10 14 14 14 14 13 12 9 5 6 5 6 6 7
13 7 9 9 7 7 7 8 7 7 7 6 6 8 9 9 9 9 10 9 10 10 10 11 11 11 12 11 9 13 16 15 16 14 13 11 8 7 7 5 7 7 7
11 10 10 5 9 8 7 8 7 7 7 8 8 9 9 9 9 10 10 10 10 10 10 11 11 12 12 9 11 13 15 15 15 14 12 11 10 9 7 8 8 7 7
12 11 7 5 7 7 7 7 7 7 8 9 9 8 8 9 9 10 10 10 10 10 11 11 11 11 13 10 12 15 15 15 13 13 11 12 11 10 7 5 7 6 6
13 10 8 9 8 6 7 7 7 8 8 9 9 8 9 9 10 10 10 10 10 10 10 11 10 9 8 9 14 16 16 15 13 12 12 10 14 20 12 6 5 6 5
11 11 10 9 8 7 7 7 7 7 8 9 9 10 10 11 11 10 11 11 10 10 10 10 11 10 8 16 24 24 16 14 12 13 11 8 12 12 18 16 15 12 6
12 11 10 8 8 7 6 6 7 8 9 9 10 11 11 11 11 12 12 12 11 10 11 12 11 11 8 22 29 30 14 15 14 13 10 9 6 11 8 14 18 17 19
14 12 9 8 7 7 6 7 8 9 9 10 10 11 11 11 11 12 12 12 12 11 12 13 13 14 12 27 31 34 18 15 17 16 14 13 13 6 11 9 9 9 10
13 10 9 8 7 7 7 8 9 9 10 10 10 11 11 11 11 12 12 12 12 12 13 14 15 17 17 28 31 29 18 17 19 16 13 13 14 24 17 8 8 8 8
12 11 10 9 8 6 7 8 8 9 10 9 10 10 10 10 11 10 11 11 11 12 12 14 14 19 17 24 30 28 14 17 15 14 13 19 24 27 16 7 7 6 6
14 11 10 9 7 6 7 8 8 8 8 8 9 9 9 8 10 9 11 12 12 12 13 14 13 16 19 20 31 33 17 14 15 13 11 12 28 25 23 13 5 6 7
14 13 10 8 6 7 8 8 8 7 7 7 8 8 6 8 8 9 8 11 12 12 13 15 14 13 16 24 27 33 31 28 16 15 11 14 27 26 25 17 16 13 6
12 12 11 10 8 8 8 8 6 6 6 6 5 5 6 7 7 7 7 7 10 10 11 11 12 14 14 15 29 31 31 29 17 15 21 27 24 22 17 24 21 11 7
12 12 11 10 8 8 8 6 3 3 3 5 5 4 4 5 3 4 4 5 6 7 8 10 11 12 13 14 16 16 15 23 18 17 15 16 19 16 14 13 14 9 7
12 10 10 9 8 7 6 6 5 4 5 7 6 5 5 5 5 4 2 3 2 2 4 7 9 12 13 15 24 24 16 16 18 15 12 12 13 13 13 12 12 11 10
12 11 12 9 5 6 4 6 6 6 5 5 4 4 4 4 5 4 4 5 5 5 6 9 9 12 16 22 28 31 28 29 27 14 14 14 13 14 14 13 13 12 13
Wind_Direction
135 156 186 150 178 117 70 47 52 39 12 359 14 359 341 354 17 10 10 12 359 343 331 337 330 330 337 325 312 308 317 313 301 308 310 308 311 328 0 4 351 328 338
148 149 143 218 207 85 61 47 44 46 25 358 17 351 336 347 23 7 356 16 338 348 336 335 329 340 334 312 325 326 314 311 317 319 313 314 309 296 339 330 319 314 338
153 130 188 228 104 76 50 52 41 37 37 15 14 352 353 353 9 352 0 343 355 344 346 347 359 346 319 329 317 326 335 322 317 309 305 315 309 308 314 313 310 324 318
142 178 214 139 101 92 69 43 52 41 35 30 10 355 3 351 353 1 350 337 343 355 357 13 359 326 333 319 332 337 325 324 315 314 327 320 318 311 309 324 321 318 320
167 195 219 114 90 91 76 44 48 46 43 17 17 10 4 339 350 4 337 358 332 351 2 5 344 338 326 336 333 329 329 317 315 314 321 314 319 314 314 313 316 309 303
181 219 130 105 84 74 54 60 43 60 42 26 15 18 2 337 345 359 347 350 347 344 355 354 344 328 332 327 324 324 316 310 303 322 329 327 321 317 319 312 310 303 309
188 178 137 103 79 69 53 18 36 53 40 30 16 12 360 350 343 357 344 334 342 343 339 356 336 331 328 323 329 325 314 309 354 329 322 313 305 310 307 306 301 302 307
178 172 112 109 99 78 61 31 11 37 35 25 15 9 356 354 347 345 334 338 339 343 338 339 326 331 324 331 329 318 311 329 313 319 314 301 285 274 240 232 283 295 291
193 106 106 100 72 89 73 51 8 34 31 21 9 7 355 351 343 339 342 342 344 333 345 330 335 328 326 327 320 315 341 332 337 318 304 290 282 265 255 242 225 252 285
138 113 119 89 84 69 83 55 30 29 25 11 8 1 357 352 350 342 349 350 342 346 334 337 334 323 325 327 325 360 339 331 325 313 304 295 292 269 250 238 232 241 256
119 118 119 100 88 62 56 61 35 23 18 360 4 8 3 352 352 353 356 349 345 344 339 339 330 332 339 328 9 357 334 319 317 310 300 294 286 279 276 258 241 239 244
117 134 112 86 53 62 35 55 42 26 5 2 5 26 3 354 351 359 354 349 352 342 342 336 336 341 336 334 12 348 328 321 314 309 304 297 290 284 269 262 257 246 245
122 108 72 74 76 60 46 47 40 25 4 10 11 22 2 351 0 359 352 354 349 343 340 342 341 340 340 19 357 336 328 321 314 307 301 296 295 282 274 264 260 256 258
122 106 114 106 75 69 56 41 38 27 9 15 13 15 2 350 9 355 349 357 346 344 346 346 338 344 341 15 347 338 330 324 315 315 320 314 298 287 280 281 286 283 273
124 122 106 84 82 60 63 41 38 23 15 15 15 10 5 356 8 354 359 355 348 348 344 338 337 340 350 4 349 344 334 325 327 327 320 311 317 311 304 310 297 278 272
115 104 97 89 78 59 48 39 36 29 21 16 16 12 5 6 5 356 2 354 345 338 338 344 338 344 6 357 357 352 332 330 332 329 325 310 314 345 321 315 329 314 298
122 107 95 91 80 69 46 40 37 35 28 19 15 15 9 8 6 3 357 351 346 341 348 345 345 353 20 10 3 353 340 332 334 335 320 321 320 311 299 295 290 284 277
113 110 109 102 83 70 46 46 40 35 30 22 18 17 12 11 8 1 358 353 349 356 352 349 355 3 1 12 3 356 343 337 342 338 330 320 308 261 307 301 291 274 264
112 111 110 101 84 69 56 50 44 35 30 24 22 21 15 14 8 3 4 356 356 359 359 353 360 1 357 6 0 354 343 341 342 335 331 333 341 338 334 321 300 291 277
120 123 116 106 90 76 69 57 49 37 31 21 29 24 18 24 13 6 12 0 359 3 358 353 360 3 355 355 355 354 341 341 340 335 334 351 350 352 354 334 315 316 325
123 125 108 101 98 89 79 69 52 40 33 22 34 29 27 35 23 13 20 8 2 360 360 357 358 2 354 350 350 351 345 348 341 342 347 356 356 359 359 353 320 317 305
131 123 115 103 87 82 77 70 52 46 36 31 42 31 37 37 30 24 22 12 8 7 6 0 357 355 351 351 348 350 349 354 348 350 3 354 359 3 2 358 359 346 319
135 125 119 109 94 81 75 73 53 40 48 39 51 56 4 62 47 33 17 15 9 5 0 358 353 349 345 348 350 348 350 356 356 356 8 1 358 3 359 3 3 5 0
134 127 127 119 106 90 83 80 58 235 105 54 39 59 34 9 76 43 27 11 3 358 357 355 352 345 343 348 350 348 348 354 358 357 1 360 359 9 7 3 1 360 3
133 135 125 110 94 89 84 61 43 24 66 71 31 16 34 20 12 53 12 347 14 67 349 347 348 342 343 350 355 352 354 357 356 355 1 2 4 7 8 5 2 357 359
137 124 111 123 162 104 51 81 65 39 42 54 69 5 30 13 16 11 349 253 270 220 241 308 358 346 343 357 1 357 359 4 4 4 8 7 6 7 4 4 359 356 354